Weather History for Mora, MN

Change the Weather History Date:

Tuesday, October 9, 2012

  Actual Average Record
Temperature  
Mean Temperature 40 °F -  
Max Temperature 46 °F 56 °F 81 °F (1938)
Min Temperature 33 °F 34 °F 15 °F (2000)
Degree Days  
Heating Degree Days 26    
Moisture  
Dew Point 30 °F    
Average Humidity 67    
Maximum Humidity 87    
Minimum Humidity 46    
Precipitation  
Precipitation 0.00 in - - ()
Sea Level Pressure  
Sea Level Pressure 29.79 in    
Wind  
Wind Speed 7 mph (West)    
Max Wind Speed 20 mph    
Max Gust Speed 31 mph    
Visibility 10 miles    
Events Rain    
Averages and records for this station are not official NWS values.
T = Trace of Precipitation, MM = Missing Value Source: NWS Daily Summary

Daily Weather History Graph

Daily Weather History Graph

Search for Another Location

Airport:

Trip Planner

Search our weather history database for the weather conditions in past years. The results will help you decide how hot, cold, wet, or windy it might be!

Date:

Astronomy

Oct. 09, 2012 Rise Set
Actual Time 7:22 AM CDT 6:37 PM CDT
Civil Twilight 6:52 AM CDT 7:06 PM CDT
Nautical Twilight 6:18 AM CDT 7:41 PM CDT
Astronomical Twilight 5:43 AM CDT 8:16 PM CDT
Moon 12:41 AM CDT (10/9) 3:21 PM CDT (10/9)
Length of Visible Light 12h 14m
Length of Day
11h 14m
Last Quarter, 36% of the Moon is Illuminated
Oct 9
Last Quarter
Oct 15
New
Oct 21
First Quarter
Oct 29
Full
Nov 6
Last Quarter

Hourly Weather History & Observations

Time (CDT) Temp. Windchill Dew Point Humidity Pressure Visibility Wind Dir Wind Speed Gust Speed Precip Events Conditions
12:05 AM 39.2 °F 35.9 °F 33.8 °F 81% 29.71 in 10.0 mi SW 4.6 mph - N/A   Clear
12:25 AM 41.0 °F 39.0 °F 33.8 °F 76% 29.71 in 10.0 mi SW 3.5 mph - N/A   Clear
12:45 AM 39.2 °F 37.0 °F 33.8 °F 81% 29.71 in 10.0 mi SW 3.5 mph - N/A   Clear
1:05 AM 39.2 °F - 33.8 °F 81% 29.72 in 10.0 mi Calm Calm - N/A   Clear
1:45 AM 39.2 °F 37.0 °F 33.8 °F 81% 29.72 in 10.0 mi WSW 3.5 mph - N/A   Clear
2:05 AM 39.2 °F 35.9 °F 33.8 °F 81% 29.72 in 10.0 mi SW 4.6 mph - N/A   Clear
2:45 AM 39.2 °F 37.0 °F 33.8 °F 81% 29.72 in 10.0 mi SW 3.5 mph - N/A   Clear
3:05 AM 39.2 °F 37.0 °F 33.8 °F 81% 29.71 in 10.0 mi SW 3.5 mph - N/A   Clear
3:25 AM 37.4 °F - 33.8 °F 87% 29.70 in 10.0 mi Calm Calm - N/A   Clear
3:45 AM 39.2 °F - 33.8 °F 81% 29.70 in 10.0 mi Calm Calm - N/A   Clear
4:05 AM 39.2 °F - 33.8 °F 81% 29.70 in 10.0 mi Calm Calm - N/A   Clear
4:25 AM 39.2 °F 37.0 °F 33.8 °F 81% 29.70 in 10.0 mi WSW 3.5 mph - N/A   Clear
4:45 AM 39.2 °F 37.0 °F 33.8 °F 81% 29.71 in 10.0 mi WSW 3.5 mph - N/A   Clear
5:05 AM 39.2 °F 35.9 °F 33.8 °F 81% 29.71 in 10.0 mi WSW 4.6 mph - N/A   Clear
5:25 AM 39.2 °F 35.9 °F 33.8 °F 81% 29.71 in 10.0 mi WSW 4.6 mph - N/A   Clear
5:45 AM 39.2 °F 35.9 °F 33.8 °F 81% 29.72 in 10.0 mi WSW 4.6 mph - N/A   Clear
6:05 AM 39.2 °F 35.9 °F 32.0 °F 75% 29.72 in 10.0 mi West 4.6 mph - N/A   Clear
6:25 AM 39.2 °F 35.9 °F 33.8 °F 81% 29.72 in 10.0 mi WSW 4.6 mph - N/A   Clear
6:45 AM 39.2 °F 37.0 °F 32.0 °F 75% 29.72 in 10.0 mi WSW 3.5 mph - N/A   Clear
7:05 AM 39.2 °F 37.0 °F 32.0 °F 75% 29.72 in 10.0 mi WSW 3.5 mph - N/A   Scattered Clouds
7:25 AM 39.2 °F 35.9 °F 32.0 °F 75% 29.73 in 10.0 mi WSW 4.6 mph - N/A   Scattered Clouds
7:45 AM 39.2 °F 35.9 °F 32.0 °F 75% 29.73 in 10.0 mi SW 4.6 mph - N/A   Mostly Cloudy
8:05 AM 39.2 °F 35.9 °F 32.0 °F 75% 29.73 in 10.0 mi WSW 4.6 mph - N/A   Scattered Clouds
8:25 AM 41.0 °F 35.2 °F 32.0 °F 70% 29.74 in 10.0 mi West 9.2 mph - N/A   Scattered Clouds
8:45 AM 42.8 °F 38.0 °F 32.0 °F 66% 29.74 in 10.0 mi West 8.1 mph - N/A   Scattered Clouds
9:05 AM 42.8 °F 38.6 °F 32.0 °F 66% 29.74 in 10.0 mi West 6.9 mph - N/A   Clear
9:25 AM 42.8 °F 38.6 °F 32.0 °F 66% 29.74 in 10.0 mi West 6.9 mph - N/A   Clear
9:45 AM 42.8 °F 35.8 °F 30.2 °F 61% 29.75 in 10.0 mi West 13.8 mph 19.6 mph N/A   Clear
10:05 AM 42.8 °F 36.6 °F 30.2 °F 61% 29.75 in 10.0 mi West 11.5 mph 17.3 mph N/A   Clear
10:25 AM 46.4 °F 40.4 °F 30.2 °F 53% 29.75 in 10.0 mi West 13.8 mph 23.0 mph N/A   Clear
10:45 AM 46.4 °F 40.1 °F 28.4 °F 50% 29.75 in 10.0 mi West 15.0 mph 21.9 mph N/A   Scattered Clouds
11:05 AM 46.4 °F 40.4 °F 26.6 °F 46% 29.75 in 10.0 mi West 13.8 mph 21.9 mph N/A   Clear
11:25 AM 46.4 °F 40.1 °F 26.6 °F 46% 29.75 in 10.0 mi West 15.0 mph 23.0 mph N/A   Scattered Clouds
11:45 AM 46.4 °F 40.1 °F 28.4 °F 50% 29.75 in 10.0 mi West 15.0 mph 21.9 mph N/A   Scattered Clouds
12:17 PM 44.6 °F 39.7 °F 28.4 °F 53% 29.75 in 10.0 mi West 9.2 mph 18.4 mph N/A   Scattered Clouds
12:20 PM 44.6 °F 38.1 °F 28.4 °F 53% 29.75 in 10.0 mi West 13.8 mph 23.0 mph N/A   Scattered Clouds
12:39 PM 44.6 °F 38.8 °F 28.4 °F 53% 29.75 in 10.0 mi West 11.5 mph 20.7 mph N/A   Mostly Cloudy
1:00 PM 44.6 °F 39.7 °F 28.4 °F 53% 29.75 in 10.0 mi West 9.2 mph - N/A   Mostly Cloudy
1:20 PM 44.6 °F 37.8 °F 28.4 °F 53% 29.75 in 10.0 mi West 15.0 mph 23.0 mph N/A   Scattered Clouds
1:40 PM 44.6 °F 36.6 °F 28.4 °F 53% 29.75 in 10.0 mi West 19.6 mph 27.6 mph N/A Rain Light Rain
2:00 PM 41.0 °F 34.3 °F 32.0 °F 70% 29.76 in 10.0 mi WNW 11.5 mph 17.3 mph N/A   Scattered Clouds
2:20 PM 42.8 °F 36.2 °F 32.0 °F 66% 29.76 in 10.0 mi West 12.7 mph 23.0 mph N/A   Scattered Clouds
2:40 PM 44.6 °F 38.1 °F 32.0 °F 61% 29.76 in 10.0 mi West 13.8 mph - N/A   Scattered Clouds
3:00 PM 44.6 °F 38.8 °F 32.0 °F 61% 29.77 in 10.0 mi West 11.5 mph 17.3 mph N/A   Mostly Cloudy
3:20 PM 44.6 °F 38.1 °F 30.2 °F 57% 29.78 in 10.0 mi West 13.8 mph 19.6 mph N/A   Scattered Clouds
3:40 PM 44.6 °F 38.1 °F 30.2 °F 57% 29.78 in 10.0 mi WNW 13.8 mph 18.4 mph N/A   Scattered Clouds
4:00 PM 42.8 °F 35.1 °F 32.0 °F 66% 29.80 in 7.0 mi WNW 16.1 mph 31.1 mph N/A   Drizzle
4:19 PM 41.0 °F 33.9 °F 32.0 °F 70% 29.80 in 10.0 mi WNW 12.7 mph 18.4 mph N/A   Mostly Cloudy
4:40 PM 42.8 °F 37.0 °F 32.0 °F 66% 29.80 in 10.0 mi WNW 10.4 mph 20.7 mph N/A   Mostly Cloudy
5:00 PM 44.6 °F 38.4 °F 32.0 °F 61% 29.80 in 10.0 mi West 12.7 mph 23.0 mph N/A   Mostly Cloudy
5:20 PM 44.6 °F 38.4 °F 32.0 °F 61% 29.82 in 10.0 mi WNW 12.7 mph 23.0 mph N/A   Overcast
5:40 PM 42.8 °F 35.8 °F 28.4 °F 57% 29.82 in 10.0 mi WNW 13.8 mph 27.6 mph N/A   Mostly Cloudy
6:00 PM 42.8 °F 36.2 °F 28.4 °F 57% 29.84 in 10.0 mi WNW 12.7 mph 24.2 mph N/A   Mostly Cloudy
6:20 PM 41.0 °F 32.8 °F 24.8 °F 53% 29.85 in 10.0 mi WNW 16.1 mph 26.5 mph N/A   Overcast
6:40 PM 37.4 °F 29.8 °F 24.8 °F 60% 29.86 in 10.0 mi WNW 11.5 mph 19.6 mph N/A   Scattered Clouds
7:00 PM 39.2 °F 32.0 °F 23.0 °F 52% 29.87 in 10.0 mi WNW 11.5 mph - N/A   Mostly Cloudy
7:20 PM 39.2 °F 31.2 °F 23.0 °F 52% 29.88 in 10.0 mi WNW 13.8 mph 25.3 mph N/A   Overcast
7:40 PM 37.4 °F 30.8 °F 23.0 °F 56% 29.90 in 10.0 mi WNW 9.2 mph - N/A   Scattered Clouds
8:00 PM 37.4 °F 29.3 °F 23.0 °F 56% 29.90 in 10.0 mi WNW 12.7 mph 18.4 mph N/A   Scattered Clouds
8:20 PM 35.6 °F 29.9 °F 23.0 °F 60% 29.91 in 10.0 mi WNW 6.9 mph - N/A   Scattered Clouds
8:40 PM 35.6 °F 30.7 °F 23.0 °F 60% 29.92 in 10.0 mi West 5.8 mph - N/A   Clear
9:00 PM 35.6 °F 29.2 °F 24.8 °F 65% 29.92 in 10.0 mi West 8.1 mph - N/A   Scattered Clouds
9:20 PM 35.6 °F 29.9 °F 26.6 °F 70% 29.92 in 10.0 mi West 6.9 mph - N/A   Mostly Cloudy
9:40 PM 35.6 °F 28.0 °F 26.6 °F 70% 29.93 in 10.0 mi WNW 10.4 mph - N/A   Scattered Clouds
10:00 PM 35.6 °F 28.6 °F 26.6 °F 70% 29.93 in 10.0 mi WNW 9.2 mph - N/A   Mostly Cloudy
10:20 PM 35.6 °F 29.2 °F 26.6 °F 70% 29.94 in 10.0 mi West 8.1 mph - N/A   Mostly Cloudy
10:40 PM 35.6 °F 29.2 °F 26.6 °F 70% 29.94 in 10.0 mi West 8.1 mph - N/A   Mostly Cloudy
11:00 PM 35.6 °F 27.5 °F 26.6 °F 70% 29.95 in 10.0 mi WNW 11.5 mph 16.1 mph N/A   Mostly Cloudy
11:20 PM 33.8 °F 27.0 °F 26.6 °F 75% 29.95 in 10.0 mi WNW 8.1 mph - N/A   Scattered Clouds
11:40 PM 33.8 °F 27.0 °F 26.6 °F 75% 29.95 in 10.0 mi WNW 8.1 mph - N/A   Scattered Clouds